KQA499 HTZA-HKJK

Flight info

Callsign KQA499
Flight time 0h 53m
Altitude 36000
Route DUNDO UT913 GABSO GABSO4C
Aircraft B738/M-SDE2E3FGHIRWXY/LB1

Departure

Time 2026-04-27 22:01
Airport Abeid Amani Karume International Airport (HTZA)

Arrival

Time 2026-04-27 22:55
Airport Jomo Kenyatta International Airport (HKJK)
Time Latitude Longitude Altitude Speed Heading
2026-04-27 21:41 -6.22325 39.22250 57 ft 0 kts 354°
2026-04-27 21:54 -6.22333 39.22251 57 ft 4 kts 354°
2026-04-27 21:54 -6.22360 39.22253 53 ft 4 kts 354°
2026-04-27 21:54 -6.22384 39.22256 51 ft 2 kts 10°
2026-04-27 21:54 -6.22407 39.22251 53 ft 4 kts 16°
2026-04-27 21:55 -6.22430 39.22241 55 ft 4 kts 51°
2026-04-27 21:55 -6.22436 39.22228 57 ft 2 kts 86°
2026-04-27 21:57 -6.22436 39.22229 60 ft 1 kts 86°
2026-04-27 21:57 -6.22429 39.22291 55 ft 17 kts 78°
2026-04-27 21:57 -6.22325 39.22331 56 ft 24 kts 354°
2026-04-27 21:57 -6.22153 39.22315 56 ft 24 kts 355°
2026-04-27 21:58 -6.21991 39.22299 59 ft 23 kts 354°
2026-04-27 21:58 -6.21835 39.22283 58 ft 21 kts 354°
2026-04-27 21:58 -6.21706 39.22309 55 ft 19 kts 355°
2026-04-27 21:58 -6.21576 39.22297 58 ft 19 kts 353°
2026-04-27 21:59 -6.21500 39.22333 58 ft 9 kts 80°
2026-04-27 21:59 -6.21485 39.22396 57 ft 10 kts 56°
2026-04-27 21:59 -6.21395 39.22411 63 ft 18 kts 355°
2026-04-27 21:59 -6.21260 39.22397 63 ft 20 kts 353°
2026-04-27 22:00 -6.21119 39.22395 61 ft 18 kts 349°
2026-04-27 22:00 -6.21115 39.22358 55 ft 6 kts 218°
2026-04-27 22:00 -6.21175 39.22384 56 ft 14 kts 149°
2026-04-27 22:00 -6.21309 39.22401 61 ft 29 kts 174°
2026-04-27 22:01 -6.21762 39.22448 63 ft 104 kts 174°
2026-04-27 22:01 -6.22720 39.22543 63 ft 168 kts 174°
2026-04-27 22:01 -6.23933 39.22674 767 ft 169 kts 174°
2026-04-27 22:01 -6.25039 39.22808 1911 ft 156 kts 176°
2026-04-27 22:02 -6.26108 39.22504 2532 ft 178 kts 213°
2026-04-27 22:02 -6.26894 39.21397 2829 ft 215 kts 248°
2026-04-27 22:02 -6.26944 39.19800 3076 ft 246 kts 281°
2026-04-27 22:02 -6.26085 39.18266 3547 ft 261 kts 313°
2026-04-27 22:03 -6.24640 39.17160 4088 ft 272 kts 325°
2026-04-27 22:03 -6.22865 39.16346 4545 ft 290 kts 349°
2026-04-27 22:03 -6.20846 39.16232 5437 ft 291 kts
2026-04-27 22:03 -6.18799 39.16279 6414 ft 291 kts
2026-04-27 22:04 -6.16794 39.16326 7243 ft 294 kts
2026-04-27 22:04 -6.14742 39.16382 8109 ft 296 kts
2026-04-27 22:04 -6.12675 39.16449 8968 ft 299 kts
2026-04-27 22:04 -6.10587 39.16527 9843 ft 302 kts
2026-04-27 22:05 -6.08460 39.16487 10445 ft 314 kts 356°
2026-04-27 22:05 -6.06191 39.16273 10628 ft 340 kts 352°
2026-04-27 22:05 -6.03803 39.15882 11061 ft 353 kts 349°
2026-04-27 22:05 -6.01387 39.15359 11752 ft 357 kts 346°
2026-04-27 22:06 -5.98977 39.14747 12525 ft 359 kts 345°
2026-04-27 22:06 -5.96560 39.14074 13293 ft 362 kts 344°
2026-04-27 22:06 -5.94136 39.13361 14062 ft 364 kts 343°
2026-04-27 22:06 -5.91688 39.12618 14674 ft 370 kts 343°
2026-04-27 22:07 -5.89210 39.11855 15310 ft 375 kts 343°
2026-04-27 22:07 -5.86709 39.11077 16024 ft 377 kts 343°
2026-04-27 22:07 -5.84191 39.10292 16730 ft 381 kts 343°
2026-04-27 22:07 -5.81646 39.09497 17316 ft 386 kts 343°
2026-04-27 22:08 -5.79066 39.08691 17979 ft 389 kts 343°
2026-04-27 22:08 -5.76467 39.07880 18583 ft 392 kts 343°
2026-04-27 22:08 -5.73849 39.07062 19102 ft 397 kts 343°
2026-04-27 22:08 -5.71193 39.06234 19584 ft 402 kts 343°
2026-04-27 22:09 -5.68521 39.05399 20175 ft 404 kts 343°
2026-04-27 22:09 -5.65827 39.04559 20717 ft 407 kts 343°
2026-04-27 22:09 -5.64026 39.03997 21017 ft 410 kts 343°
2026-04-27 22:09 -5.61286 39.03141 21502 ft 414 kts 343°
2026-04-27 22:10 -5.57602 39.01993 22267 ft 416 kts 343°
2026-04-27 22:10 -5.55765 39.01420 22565 ft 419 kts 343°
2026-04-27 22:10 -5.52962 39.00546 22965 ft 425 kts 343°
2026-04-27 22:10 -5.50227 38.99693 23465 ft 426 kts 343°
2026-04-27 22:11 -5.47391 38.98808 23890 ft 428 kts 343°
2026-04-27 22:11 -5.44531 38.97916 24237 ft 433 kts 343°
2026-04-27 22:11 -5.41642 38.97015 24613 ft 436 kts 343°
2026-04-27 22:11 -5.38749 38.96113 25068 ft 436 kts 343°
2026-04-27 22:12 -5.35840 38.95206 25426 ft 439 kts 343°
2026-04-27 22:12 -5.32906 38.94292 25752 ft 443 kts 342°
2026-04-27 22:12 -5.29963 38.93375 26201 ft 443 kts 343°
2026-04-27 22:12 -5.27012 38.92455 26602 ft 445 kts 343°
2026-04-27 22:13 -5.24047 38.91531 26926 ft 449 kts 343°
2026-04-27 22:13 -5.21056 38.90599 27250 ft 452 kts 343°
2026-04-27 22:13 -5.18045 38.89662 27591 ft 454 kts 343°
2026-04-27 22:13 -5.15018 38.88718 27926 ft 457 kts 343°
2026-04-27 22:14 -5.11973 38.87770 28268 ft 459 kts 343°
2026-04-27 22:14 -5.08914 38.86817 28595 ft 461 kts 343°
2026-04-27 22:14 -5.05842 38.85861 28907 ft 464 kts 343°
2026-04-27 22:14 -5.02749 38.84898 29177 ft 467 kts 343°
2026-04-27 22:15 -4.99639 38.83929 29482 ft 470 kts 343°
2026-04-27 22:15 -4.96551 38.82968 29734 ft 473 kts 343°
2026-04-27 22:15 -4.93392 38.81984 30005 ft 476 kts 343°
2026-04-27 22:15 -4.90194 38.80988 30365 ft 475 kts 343°
2026-04-27 22:16 -4.87097 38.79951 30599 ft 477 kts 339°
2026-04-27 22:16 -4.84105 38.78480 30777 ft 481 kts 329°
2026-04-27 22:16 -4.81265 38.76727 31205 ft 478 kts 328°
2026-04-27 22:16 -4.78452 38.74953 31537 ft 478 kts 328°
2026-04-27 22:17 -4.75630 38.73171 31750 ft 480 kts 328°
2026-04-27 22:17 -4.72805 38.71400 32160 ft 477 kts 328°
2026-04-27 22:17 -4.69993 38.69653 32583 ft 474 kts 329°
2026-04-27 22:17 -4.67186 38.67920 32951 ft 473 kts 329°
2026-04-27 22:18 -4.64381 38.66196 33290 ft 473 kts 329°
2026-04-27 22:18 -4.61584 38.64480 33701 ft 470 kts 330°
2026-04-27 22:18 -4.58808 38.62779 34191 ft 466 kts 330°
2026-04-27 22:18 -4.56078 38.61068 34494 ft 461 kts 329°
2026-04-27 22:19 -4.53324 38.59387 34567 ft 466 kts 330°
2026-04-27 22:19 -4.50543 38.57703 34706 ft 467 kts 331°
2026-04-27 22:19 -4.47757 38.56033 34950 ft 467 kts 330°
2026-04-27 22:19 -4.44994 38.54340 35257 ft 466 kts 330°
2026-04-27 22:20 -4.42236 38.52640 35576 ft 465 kts 329°
2026-04-27 22:20 -4.39491 38.50946 35889 ft 463 kts 329°
2026-04-27 22:20 -4.36744 38.49254 36180 ft 463 kts 330°
2026-04-27 22:20 -4.33997 38.47566 36465 ft 462 kts 330°
2026-04-27 22:21 -4.31259 38.45885 36770 ft 462 kts 330°
2026-04-27 22:21 -4.28521 38.44206 37074 ft 461 kts 330°
2026-04-27 22:21 -4.25792 38.42533 37360 ft 460 kts 330°
2026-04-27 22:21 -4.23064 38.40862 37636 ft 459 kts 330°
2026-04-27 22:22 -4.20337 38.39191 37919 ft 459 kts 330°
2026-04-27 22:22 -4.17618 38.37524 38212 ft 458 kts 330°
2026-04-27 22:22 -4.14910 38.35864 38544 ft 456 kts 330°
2026-04-27 22:22 -4.12210 38.34210 38803 ft 455 kts 330°
2026-04-27 22:23 -4.09510 38.32555 38997 ft 455 kts 330°
2026-04-27 22:23 -4.06811 38.30901 39192 ft 455 kts 330°
2026-04-27 22:23 -4.04118 38.29252 39412 ft 454 kts 330°
2026-04-27 22:23 -4.01431 38.27601 39632 ft 453 kts 330°
2026-04-27 22:24 -3.98755 38.25954 39829 ft 452 kts 330°
2026-04-27 22:24 -3.96073 38.24301 39976 ft 453 kts 330°
2026-04-27 22:24 -3.93377 38.22640 39972 ft 456 kts 330°
2026-04-27 22:25 -3.87949 38.19295 39986 ft 458 kts 330°
2026-04-27 22:25 -3.82527 38.15955 39989 ft 457 kts 330°
2026-04-27 22:26 -3.77151 38.12645 39989 ft 456 kts 330°
2026-04-27 22:26 -3.71746 38.09317 39998 ft 456 kts 330°
2026-04-27 22:27 -3.66349 38.05994 39996 ft 455 kts 330°
2026-04-27 22:27 -3.60954 38.02674 39997 ft 455 kts 330°
2026-04-27 22:28 -3.55644 37.99442 39997 ft 455 kts 330°
2026-04-27 22:28 -3.50230 37.96171 40000 ft 455 kts 330°
2026-04-27 22:29 -3.44817 37.92898 39996 ft 455 kts 330°
2026-04-27 22:29 -3.39403 37.89620 40002 ft 455 kts 330°
2026-04-27 22:30 -3.33992 37.86342 40004 ft 455 kts 330°
2026-04-27 22:30 -3.28584 37.83066 40005 ft 455 kts 330°
2026-04-27 22:31 -3.23170 37.79787 40014 ft 455 kts 330°
2026-04-27 22:31 -3.17760 37.76511 40011 ft 455 kts 330°
2026-04-27 22:32 -3.12350 37.73230 39872 ft 456 kts 330°
2026-04-27 22:32 -3.09626 37.71554 39190 ft 457 kts 331°
2026-04-27 22:32 -3.06946 37.69921 38657 ft 447 kts 330°
2026-04-27 22:32 -3.04301 37.68322 38028 ft 443 kts 331°
2026-04-27 22:33 -3.01649 37.66777 37461 ft 441 kts 331°
2026-04-27 22:33 -2.99058 37.65165 36916 ft 439 kts 330°
2026-04-27 22:33 -2.96445 37.63580 36330 ft 439 kts 331°
2026-04-27 22:33 -2.93826 37.62009 35760 ft 439 kts 331°
2026-04-27 22:34 -2.91202 37.60432 35147 ft 441 kts 330°
2026-04-27 22:34 -2.88569 37.58843 34483 ft 443 kts 330°
2026-04-27 22:34 -2.85958 37.57263 33808 ft 445 kts 330°
2026-04-27 22:34 -2.83342 37.55601 33253 ft 444 kts 327°
2026-04-27 22:35 -2.80833 37.53827 32776 ft 440 kts 325°
2026-04-27 22:35 -2.78373 37.52006 32237 ft 438 kts 324°
2026-04-27 22:35 -2.75940 37.50183 31769 ft 435 kts 324°
2026-04-27 22:35 -2.73528 37.48380 31330 ft 431 kts 324°
2026-04-27 22:36 -2.71128 37.46602 30890 ft 427 kts 324°
2026-04-27 22:36 -2.68738 37.44846 30442 ft 427 kts 324°
2026-04-27 22:36 -2.66310 37.43072 29950 ft 439 kts 324°
2026-04-27 22:36 -2.63821 37.41261 29405 ft 444 kts 324°
2026-04-27 22:37 -2.61343 37.39459 28885 ft 438 kts 324°
2026-04-27 22:37 -2.58893 37.37678 28392 ft 433 kts 324°
2026-04-27 22:37 -2.56473 37.35919 27915 ft 427 kts 324°
2026-04-27 22:37 -2.54082 37.34182 27431 ft 423 kts 325°
2026-04-27 22:38 -2.51717 37.32463 26964 ft 418 kts 324°
2026-04-27 22:38 -2.49376 37.30762 26517 ft 414 kts 324°
2026-04-27 22:38 -2.47053 37.29074 26060 ft 410 kts 325°
2026-04-27 22:38 -2.44757 37.27406 25597 ft 407 kts 325°
2026-04-27 22:39 -2.42468 37.25743 25141 ft 406 kts 324°
2026-04-27 22:39 -2.40191 37.24088 24669 ft 403 kts 324°
2026-04-27 22:39 -2.37929 37.22444 24215 ft 401 kts 325°
2026-04-27 22:39 -2.35686 37.20814 23759 ft 397 kts 325°
2026-04-27 22:40 -2.33453 37.19193 23252 ft 395 kts 325°
2026-04-27 22:40 -2.31235 37.17585 22779 ft 392 kts 325°
2026-04-27 22:40 -2.29040 37.15992 22326 ft 388 kts 324°
2026-04-27 22:40 -2.26872 37.14410 21884 ft 385 kts 324°
2026-04-27 22:41 -2.25446 37.13361 21602 ft 382 kts 324°
2026-04-27 22:41 -2.22587 37.11284 21026 ft 378 kts 324°
2026-04-27 22:41 -2.20464 37.09747 20600 ft 375 kts 324°
2026-04-27 22:41 -2.18359 37.08223 20187 ft 372 kts 324°
2026-04-27 22:42 -2.16301 37.06732 19747 ft 369 kts 324°
2026-04-27 22:42 -2.14237 37.05226 19322 ft 367 kts 324°
2026-04-27 22:42 -2.12199 37.03719 18922 ft 364 kts 324°
2026-04-27 22:42 -2.10137 37.02237 18490 ft 364 kts 324°
2026-04-27 22:43 -2.08089 37.00764 18027 ft 362 kts 324°
2026-04-27 22:43 -2.06123 36.99342 17611 ft 360 kts 324°
2026-04-27 22:43 -2.04107 36.97880 17185 ft 357 kts 324°
2026-04-27 22:43 -2.02108 36.96429 16773 ft 354 kts 324°
2026-04-27 22:44 -2.00124 36.94988 16362 ft 351 kts 323°
2026-04-27 22:44 -1.98159 36.93561 15962 ft 349 kts 323°
2026-04-27 22:44 -1.96200 36.92139 15559 ft 347 kts 323°
2026-04-27 22:44 -1.94256 36.90727 15164 ft 344 kts 323°
2026-04-27 22:45 -1.92324 36.89324 14754 ft 343 kts 323°
2026-04-27 22:45 -1.90398 36.87925 14353 ft 341 kts 323°
2026-04-27 22:45 -1.88484 36.86535 13950 ft 339 kts 323°
2026-04-27 22:45 -1.86579 36.85151 13524 ft 338 kts 323°
2026-04-27 22:46 -1.84686 36.83778 13101 ft 335 kts 323°
2026-04-27 22:46 -1.82806 36.82413 12701 ft 333 kts 323°
2026-04-27 22:46 -1.80941 36.81060 12302 ft 330 kts 323°
2026-04-27 22:46 -1.79091 36.79718 11903 ft 328 kts 324°
2026-04-27 22:47 -1.77043 36.78755 11494 ft 328 kts 347°
2026-04-27 22:47 -1.74780 36.78631 11063 ft 328 kts
2026-04-27 22:47 -1.72537 36.78973 10710 ft 324 kts
2026-04-27 22:47 -1.70336 36.79320 10535 ft 317 kts
2026-04-27 22:48 -1.68161 36.79659 10240 ft 315 kts
2026-04-27 22:48 -1.66026 36.80009 10059 ft 307 kts
2026-04-27 22:48 -1.63976 36.80350 9906 ft 292 kts
2026-04-27 22:48 -1.62009 36.80657 9717 ft 283 kts
2026-04-27 22:49 -1.60072 36.80967 9427 ft 280 kts
2026-04-27 22:49 -1.58152 36.81270 9151 ft 278 kts
2026-04-27 22:49 -1.56246 36.81566 8877 ft 276 kts
2026-04-27 22:49 -1.54378 36.81857 8758 ft 268 kts
2026-04-27 22:50 -1.52592 36.82139 8658 ft 250 kts
2026-04-27 22:50 -1.50921 36.82391 8525 ft 236 kts
2026-04-27 22:50 -1.49367 36.82625 8418 ft 217 kts
2026-04-27 22:50 -1.47926 36.82937 8344 ft 210 kts
2026-04-27 22:51 -1.46466 36.83106 8265 ft 212 kts
2026-04-27 22:51 -1.45000 36.83280 8062 ft 215 kts
2026-04-27 22:51 -1.43523 36.83485 7855 ft 216 kts
2026-04-27 22:51 -1.42070 36.83714 7629 ft 206 kts
2026-04-27 22:52 -1.40707 36.83931 7417 ft 197 kts
2026-04-27 22:52 -1.39358 36.84129 7388 ft 197 kts 11°
2026-04-27 22:52 -1.38052 36.84556 7118 ft 199 kts 35°
2026-04-27 22:52 -1.37184 36.85579 6943 ft 191 kts 59°
2026-04-27 22:53 -1.36442 36.86613 6748 ft 173 kts 48°
2026-04-27 22:53 -1.35716 36.87524 6481 ft 163 kts 56°
2026-04-27 22:53 -1.35065 36.88456 6257 ft 163 kts 54°
2026-04-27 22:53 -1.34404 36.89370 6029 ft 160 kts 53°
2026-04-27 22:54 -1.33768 36.90243 5813 ft 157 kts 56°
2026-04-27 22:54 -1.33135 36.91120 5535 ft 162 kts 52°
2026-04-27 22:54 -1.32467 36.92034 5343 ft 159 kts 54°
2026-04-27 22:54 -1.31871 36.92853 5312 ft 130 kts 52°
2026-04-27 22:55 -1.31462 36.93411 5302 ft 69 kts 54°
2026-04-27 22:55 -1.31274 36.93667 5302 ft 37 kts 54°
2026-04-27 22:55 -1.31179 36.93825 5300 ft 16 kts 107°
2026-04-27 22:55 -1.31271 36.93900 5302 ft 19 kts 143°
2026-04-27 22:56 -1.31388 36.93983 5301 ft 20 kts 144°
2026-04-27 22:56 -1.31470 36.93958 5305 ft 14 kts 233°
2026-04-27 22:56 -1.31535 36.93869 5304 ft 18 kts 234°
2026-04-27 22:56 -1.31616 36.93757 5305 ft 22 kts 234°
2026-04-27 22:57 -1.31717 36.93621 5307 ft 26 kts 233°
2026-04-27 22:57 -1.31832 36.93465 5304 ft 30 kts 233°
2026-04-27 22:57 -1.31948 36.93305 5313 ft 27 kts 234°
2026-04-27 22:57 -1.32055 36.93155 5314 ft 26 kts 234°
2026-04-27 22:58 -1.32157 36.93018 5317 ft 24 kts 233°
2026-04-27 22:58 -1.32252 36.92889 5321 ft 23 kts 233°
2026-04-27 22:58 -1.32314 36.92804 5320 ft 22 kts 233°
2026-04-27 22:58 -1.32433 36.92643 5315 ft 21 kts 233°
2026-04-27 22:59 -1.32520 36.92525 5318 ft 21 kts 233°
2026-04-27 22:59 -1.32604 36.92411 5321 ft 20 kts 233°
2026-04-27 22:59 -1.32705 36.92366 5319 ft 18 kts 148°
2026-04-27 22:59 -1.32802 36.92359 5322 ft 16 kts 236°
2026-04-27 23:00 -1.32936 36.92241 5318 ft 16 kts 203°
2026-04-27 23:00 -1.33007 36.92219 5319 ft 9 kts 191°
2026-04-27 23:00 -1.33060 36.92240 5321 ft 11 kts 100°
2026-04-27 23:01 -1.33061 36.92295 5317 ft 5 kts 89°
2026-04-27 23:01 -1.33060 36.92303 5323 ft 0 kts 87°
2026-04-27 23:01 -1.33060 36.92308 5323 ft 0 kts 88°